QPF
0.02 0.01 0.01 0.02 0.01 0.00 0.00 0.01 0.01 0.03 0.02 0.02 0.02 0.02 0.03 0.03 0.03 0.02 0.01 0.02 0.02 0.02 0.04 0.04 0.04 0.04 0.02 0.02 0.02 0.01 0.01 0.01 0.01 0.02 0.02 0.02 0.03 0.02 0.03 0.03 0.04 0.03 0.03 0.02
0.01 0.01 0.02 0.02 0.01 0.01 0.00 0.00 0.01 0.02 0.01 0.02 0.02 0.02 0.03 0.03 0.03 0.02 0.01 0.02 0.02 0.02 0.03 0.03 0.04 0.03 0.02 0.02 0.01 0.01 0.00 0.01 0.01 0.01 0.01 0.02 0.01 0.01 0.02 0.01 0.02 0.03 0.03 0.01
0.02 0.02 0.02 0.02 0.01 0.01 0.01 0.00 0.01 0.02 0.02 0.02 0.03 0.03 0.03 0.03 0.02 0.02 0.02 0.01 0.02 0.02 0.02 0.02 0.02 0.02 0.02 0.01 0.01 0.01 0.00 0.01 0.01 0.01 0.01 0.02 0.02 0.01 0.01 0.02 0.02 0.02 0.01 0.01
0.02 0.03 0.04 0.03 0.02 0.02 0.01 0.01 0.02 0.03 0.03 0.03 0.04 0.04 0.04 0.04 0.03 0.02 0.02 0.01 0.02 0.03 0.02 0.02 0.02 0.02 0.01 0.01 0.01 0.01 0.01 0.00 0.00 0.01 0.01 0.02 0.02 0.02 0.02 0.02 0.03 0.04 0.02 0.01
0.02 0.03 0.03 0.03 0.03 0.03 0.03 0.02 0.03 0.04 0.04 0.04 0.06 0.06 0.07 0.06 0.03 0.03 0.03 0.02 0.02 0.02 0.02 0.02 0.02 0.02 0.02 0.02 0.02 0.01 0.01 0.01 0.01 0.01 0.01 0.02 0.03 0.04 0.04 0.03 0.03 0.03 0.03 0.03
0.03 0.03 0.03 0.03 0.03 0.03 0.04 0.04 0.03 0.04 0.05 0.05 0.05 0.07 0.08 0.06 0.04 0.03 0.02 0.03 0.02 0.02 0.02 0.02 0.02 0.02 0.02 0.02 0.02 0.02 0.02 0.01 0.02 0.02 0.03 0.03 0.04 0.05 0.05 0.05 0.05 0.05 0.03 0.03
0.03 0.03 0.03 0.02 0.01 0.02 0.02 0.03 0.02 0.02 0.03 0.04 0.05 0.04 0.06 0.06 0.05 0.03 0.04 0.04 0.04 0.03 0.03 0.02 0.01 0.02 0.02 0.02 0.02 0.02 0.02 0.02 0.02 0.03 0.04 0.04 0.05 0.05 0.06 0.07 0.08 0.07 0.05 0.03
0.03 0.04 0.03 0.02 0.01 0.02 0.02 0.01 0.01 0.02 0.02 0.02 0.04 0.03 0.05 0.05 0.04 0.04 0.04 0.05 0.05 0.05 0.03 0.02 0.02 0.02 0.03 0.03 0.03 0.03 0.02 0.02 0.02 0.02 0.03 0.02 0.02 0.02 0.04 0.05 0.06 0.07 0.05 0.03
0.04 0.05 0.05 0.04 0.03 0.03 0.02 0.02 0.02 0.02 0.02 0.02 0.02 0.02 0.02 0.03 0.04 0.03 0.03 0.04 0.03 0.03 0.02 0.03 0.03 0.02 0.02 0.02 0.02 0.02 0.02 0.02 0.01 0.01 0.01 0.02 0.01 0.01 0.02 0.03 0.03 0.05 0.04 0.03
0.04 0.06 0.06 0.06 0.03 0.03 0.03 0.04 0.03 0.02 0.02 0.02 0.02 0.02 0.01 0.01 0.02 0.03 0.03 0.03 0.02 0.02 0.03 0.02 0.02 0.02 0.01 0.01 0.01 0.01 0.02 0.02 0.01 0.01 0.01 0.01 0.01 0.02 0.03 0.04 0.02 0.02 0.03 0.03
0.04 0.05 0.06 0.05 0.03 0.03 0.05 0.05 0.04 0.04 0.03 0.02 0.02 0.02 0.02 0.02 0.02 0.02 0.02 0.03 0.03 0.03 0.03 0.02 0.01 0.01 0.01 0.01 0.01 0.01 0.01 0.01 0.01 0.01 0.01 0.01 0.00 0.01 0.01 0.01 0.01 0.02 0.03 0.03
0.04 0.05 0.05 0.04 0.03 0.03 0.04 0.04 0.05 0.06 0.06 0.03 0.02 0.03 0.04 0.04 0.03 0.03 0.02 0.02 0.02 0.03 0.03 0.02 0.01 0.01 0.01 0.01 0.02 0.01 0.01 0.01 0.01 0.01 0.01 0.01 0.00 0.00 0.00 0.00 0.01 0.01 0.02 0.02
0.03 0.02 0.02 0.01 0.01 0.02 0.02 0.03 0.04 0.04 0.04 0.03 0.02 0.03 0.07 0.09 0.05 0.05 0.04 0.03 0.03 0.03 0.03 0.02 0.02 0.01 0.01 0.01 0.01 0.02 0.02 0.02 0.02 0.02 0.01 0.01 0.00 0.00 0.00 0.01 0.01 0.01 0.01 0.02
0.03 0.02 0.02 0.01 0.01 0.01 0.01 0.02 0.02 0.02 0.02 0.01 0.01 0.02 0.03 0.04 0.04 0.04 0.04 0.04 0.04 0.03 0.02 0.02 0.02 0.01 0.01 0.01 0.01 0.02 0.03 0.03 0.03 0.02 0.02 0.01 0.01 0.01 0.02 0.01 0.01 0.00 0.00 0.01
0.02 0.02 0.01 0.01 0.01 0.02 0.02 0.01 0.02 0.02 0.03 0.02 0.01 0.02 0.02 0.02 0.02 0.02 0.03 0.04 0.04 0.03 0.02 0.02 0.01 0.01 0.01 0.01 0.01 0.02 0.03 0.03 0.02 0.02 0.02 0.02 0.01 0.01 0.01 0.01 0.01 0.01 0.01 0.00
0.02 0.02 0.01 0.01 0.01 0.01 0.02 0.01 0.01 0.02 0.03 0.02 0.01 0.01 0.02 0.03 0.03 0.03 0.04 0.05 0.04 0.03 0.01 0.01 0.01 0.01 0.01 0.02 0.02 0.02 0.02 0.04 0.04 0.02 0.02 0.01 0.01 0.01 0.01 0.01 0.01 0.01 0.00 0.00
0.03 0.03 0.03 0.02 0.01 0.01 0.01 0.01 0.00 0.01 0.02 0.03 0.02 0.01 0.02 0.03 0.04 0.04 0.05 0.04 0.03 0.02 0.01 0.01 0.02 0.01 0.01 0.01 0.02 0.02 0.02 0.03 0.05 0.02 0.01 0.01 0.01 0.01 0.01 0.01 0.01 0.00 0.00 0.00
0.04 0.04 0.02 0.02 0.02 0.01 0.01 0.02 0.01 0.01 0.03 0.04 0.03 0.02 0.02 0.03 0.03 0.03 0.02 0.02 0.02 0.01 0.01 0.01 0.02 0.02 0.01 0.01 0.02 0.02 0.02 0.02 0.03 0.02 0.02 0.01 0.01 0.01 0.01 0.00 0.00 0.00 0.00 0.00
0.04 0.03 0.02 0.02 0.01 0.02 0.02 0.02 0.03 0.03 0.02 0.03 0.04 0.03 0.03 0.02 0.02 0.01 0.02 0.03 0.03 0.03 0.02 0.02 0.03 0.03 0.02 0.01 0.02 0.02 0.02 0.02 0.02 0.02 0.01 0.01 0.01 0.01 0.01 0.01 0.01 0.00 0.00 0.01
0.04 0.03 0.02 0.02 0.03 0.03 0.03 0.02 0.03 0.03 0.03 0.04 0.04 0.03 0.02 0.02 0.01 0.01 0.01 0.01 0.02 0.01 0.01 0.02 0.03 0.03 0.02 0.02 0.03 0.02 0.02 0.02 0.02 0.02 0.02 0.01 0.01 0.01 0.01 0.01 0.01 0.01 0.01 0.01
0.04 0.04 0.04 0.04 0.04 0.02 0.02 0.03 0.03 0.03 0.04 0.06 0.04 0.02 0.02 0.02 0.02 0.01 0.01 0.01 0.01 0.01 0.02 0.02 0.02 0.02 0.02 0.02 0.04 0.03 0.03 0.03 0.02 0.01 0.01 0.01 0.01 0.01 0.01 0.01 0.01 0.01 0.01 0.01
0.03 0.03 0.03 0.03 0.04 0.02 0.02 0.03 0.03 0.03 0.05 0.06 0.04 0.02 0.02 0.02 0.02 0.01 0.01 0.01 0.01 0.02 0.02 0.02 0.02 0.02 0.02 0.02 0.03 0.03 0.03 0.04 0.03 0.02 0.01 0.01 0.01 0.01 0.01 0.02 0.01 0.01 0.01 0.00
0.03 0.02 0.02 0.01 0.02 0.03 0.02 0.02 0.02 0.04 0.06 0.06 0.04 0.03 0.02 0.02 0.02 0.02 0.01 0.01 0.01 0.01 0.02 0.02 0.02 0.02 0.02 0.02 0.04 0.04 0.03 0.03 0.03 0.03 0.01 0.01 0.01 0.01 0.02 0.02 0.01 0.01 0.01 0.01
0.03 0.03 0.03 0.02 0.01 0.02 0.02 0.02 0.03 0.05 0.07 0.08 0.05 0.04 0.04 0.03 0.02 0.01 0.01 0.01 0.02 0.02 0.02 0.01 0.01 0.01 0.02 0.02 0.03 0.04 0.02 0.02 0.03 0.03 0.02 0.01 0.02 0.02 0.02 0.02 0.01 0.01 0.01 0.01
0.03 0.03 0.03 0.03 0.03 0.03 0.03 0.03 0.03 0.04 0.07 0.08 0.05 0.04 0.04 0.05 0.04 0.02 0.02 0.02 0.02 0.02 0.01 0.00 0.01 0.01 0.02 0.02 0.04 0.04 0.02 0.02 0.02 0.02 0.01 0.01 0.01 0.01 0.02 0.02 0.02 0.02 0.02 0.01
0.02 0.02 0.02 0.02 0.02 0.03 0.03 0.04 0.04 0.04 0.05 0.06 0.04 0.03 0.03 0.03 0.03 0.02 0.02 0.02 0.02 0.01 0.01 0.00 0.00 0.01 0.01 0.01 0.03 0.04 0.02 0.02 0.02 0.01 0.01 0.01 0.02 0.02 0.02 0.03 0.03 0.02 0.02 0.02
0.02 0.03 0.02 0.02 0.02 0.02 0.02 0.02 0.03 0.04 0.04 0.05 0.04 0.04 0.03 0.03 0.02 0.02 0.02 0.02 0.02 0.02 0.01 0.01 0.00 0.01 0.01 0.01 0.03 0.03 0.02 0.02 0.01 0.01 0.01 0.01 0.02 0.02 0.02 0.02 0.02 0.02 0.02 0.02
MSLP
1009.67 1009.81 1009.93 1010.06 1010.22 1010.40 1010.59 1010.75 1010.85 1010.89 1010.86 1010.79 1010.69 1010.62 1010.60 1010.65 1010.78 1010.97 1011.20 1011.44 1011.66 1011.83 1011.93 1011.98 1011.98 1011.96 1011.92 1011.89 1011.87 1011.85 1011.81 1011.75 1011.64 1011.49 1011.29 1011.06 1010.82 1010.60 1010.41 1010.28 1010.21 1010.21 1010.26 1010.34
1009.30 1009.43 1009.50 1009.55 1009.61 1009.68 1009.76 1009.85 1009.93 1009.99 1010.03 1010.06 1010.09 1010.15 1010.25 1010.40 1010.59 1010.81 1011.04 1011.26 1011.45 1011.59 1011.69 1011.75 1011.78 1011.79 1011.81 1011.84 1011.87 1011.89 1011.91 1011.89 1011.82 1011.71 1011.55 1011.36 1011.16 1010.96 1010.80 1010.67 1010.60 1010.57 1010.59 1010.64
1009.04 1009.14 1009.17 1009.18 1009.17 1009.18 1009.20 1009.24 1009.29 1009.36 1009.43 1009.52 1009.63 1009.76 1009.93 1010.12 1010.35 1010.58 1010.80 1011.01 1011.18 1011.31 1011.41 1011.47 1011.52 1011.57 1011.62 1011.68 1011.75 1011.82 1011.87 1011.88 1011.86 1011.80 1011.69 1011.56 1011.41 1011.26 1011.13 1011.03 1010.96 1010.92 1010.92 1010.93
1008.97 1009.04 1009.06 1009.03 1009.00 1008.96 1008.95 1008.95 1008.97 1009.01 1009.08 1009.16 1009.28 1009.43 1009.61 1009.81 1010.03 1010.25 1010.47 1010.66 1010.83 1010.96 1011.07 1011.16 1011.23 1011.29 1011.37 1011.45 1011.53 1011.62 1011.68 1011.73 1011.75 1011.73 1011.68 1011.61 1011.52 1011.43 1011.35 1011.28 1011.22 1011.18 1011.16 1011.16
1009.16 1009.20 1009.20 1009.16 1009.11 1009.06 1009.01 1008.96 1008.94 1008.93 1008.94 1008.97 1009.04 1009.14 1009.27 1009.44 1009.63 1009.83 1010.04 1010.24 1010.41 1010.57 1010.70 1010.80 1010.90 1010.99 1011.07 1011.16 1011.25 1011.33 1011.41 1011.47 1011.51 1011.53 1011.53 1011.52 1011.49 1011.45 1011.41 1011.38 1011.34 1011.31 1011.29 1011.27
1009.59 1009.60 1009.57 1009.53 1009.47 1009.40 1009.32 1009.23 1009.14 1009.05 1008.97 1008.90 1008.87 1008.88 1008.94 1009.04 1009.18 1009.35 1009.55 1009.75 1009.95 1010.14 1010.30 1010.45 1010.57 1010.68 1010.78 1010.86 1010.95 1011.03 1011.10 1011.16 1011.22 1011.27 1011.31 1011.33 1011.35 1011.36 1011.36 1011.35 1011.33 1011.31 1011.28 1011.26
1010.18 1010.15 1010.12 1010.07 1010.01 1009.93 1009.82 1009.68 1009.51 1009.32 1009.12 1008.94 1008.78 1008.68 1008.63 1008.64 1008.72 1008.86 1009.05 1009.27 1009.50 1009.72 1009.93 1010.11 1010.27 1010.40 1010.50 1010.60 1010.67 1010.75 1010.82 1010.88 1010.95 1011.02 1011.08 1011.13 1011.18 1011.21 1011.22 1011.23 1011.22 1011.20 1011.17 1011.15
1010.80 1010.76 1010.72 1010.68 1010.62 1010.53 1010.40 1010.21 1009.96 1009.68 1009.37 1009.06 1008.78 1008.55 1008.39 1008.31 1008.33 1008.43 1008.60 1008.83 1009.08 1009.34 1009.59 1009.81 1010.00 1010.15 1010.27 1010.37 1010.45 1010.52 1010.60 1010.67 1010.75 1010.83 1010.91 1010.97 1011.03 1011.06 1011.07 1011.07 1011.04 1011.01 1010.99 1010.97
1011.31 1011.27 1011.25 1011.23 1011.19 1011.11 1010.96 1010.74 1010.44 1010.08 1009.68 1009.26 1008.86 1008.52 1008.26 1008.10 1008.06 1008.12 1008.27 1008.49 1008.75 1009.03 1009.30 1009.55 1009.76 1009.93 1010.07 1010.17 1010.27 1010.36 1010.44 1010.54 1010.63 1010.73 1010.82 1010.88 1010.93 1010.95 1010.94 1010.90 1010.86 1010.81 1010.77 1010.76
1011.60 1011.59 1011.60 1011.62 1011.61 1011.56 1011.42 1011.19 1010.87 1010.47 1010.01 1009.52 1009.04 1008.62 1008.28 1008.05 1007.94 1007.95 1008.07 1008.27 1008.52 1008.79 1009.06 1009.31 1009.52 1009.70 1009.84 1009.97 1010.08 1010.19 1010.31 1010.43 1010.56 1010.68 1010.78 1010.85 1010.88 1010.87 1010.83 1010.75 1010.67 1010.59 1010.53 1010.52
1011.59 1011.63 1011.70 1011.77 1011.82 1011.81 1011.72 1011.52 1011.22 1010.82 1010.35 1009.83 1009.31 1008.84 1008.45 1008.17 1008.00 1007.96 1008.02 1008.17 1008.38 1008.62 1008.85 1009.07 1009.26 1009.42 1009.56 1009.69 1009.82 1009.97 1010.12 1010.29 1010.45 1010.61 1010.73 1010.80 1010.83 1010.79 1010.71 1010.59 1010.46 1010.34 1010.26 1010.24
1011.28 1011.38 1011.52 1011.66 1011.79 1011.85 1011.84 1011.71 1011.46 1011.11 1010.67 1010.17 1009.66 1009.18 1008.76 1008.44 1008.22 1008.12 1008.12 1008.20 1008.33 1008.48 1008.65 1008.80 1008.93 1009.06 1009.17 1009.30 1009.45 1009.62 1009.81 1010.03 1010.24 1010.44 1010.59 1010.69 1010.71 1010.66 1010.54 1010.38 1010.21 1010.05 1009.94 1009.90
1010.76 1010.92 1011.13 1011.35 1011.56 1011.72 1011.79 1011.75 1011.60 1011.33 1010.96 1010.52 1010.05 1009.59 1009.17 1008.82 1008.57 1008.40 1008.32 1008.30 1008.33 1008.39 1008.45 1008.50 1008.55 1008.61 1008.68 1008.78 1008.93 1009.12 1009.35 1009.60 1009.87 1010.11 1010.30 1010.43 1010.46 1010.41 1010.28 1010.09 1009.88 1009.69 1009.55 1009.49
1010.15 1010.37 1010.63 1010.92 1011.21 1011.46 1011.63 1011.70 1011.65 1011.48 1011.21 1010.85 1010.44 1010.02 1009.63 1009.27 1008.98 1008.76 1008.59 1008.48 1008.39 1008.32 1008.26 1008.20 1008.15 1008.12 1008.12 1008.17 1008.29 1008.48 1008.73 1009.02 1009.32 1009.61 1009.84 1010.00 1010.06 1010.03 1009.90 1009.70 1009.48 1009.26 1009.09 1009.00
1009.61 1009.85 1010.15 1010.49 1010.84 1011.16 1011.42 1011.59 1011.65 1011.58 1011.41 1011.14 1010.81 1010.45 1010.08 1009.73 1009.42 1009.14 1008.90 1008.69 1008.50 1008.31 1008.12 1007.94 1007.77 1007.63 1007.55 1007.54 1007.61 1007.77 1008.01 1008.31 1008.64 1008.95 1009.23 1009.42 1009.52 1009.51 1009.40 1009.22 1008.99 1008.76 1008.57 1008.46
1009.28 1009.50 1009.80 1010.15 1010.53 1010.91 1011.23 1011.47 1011.61 1011.64 1011.56 1011.38 1011.12 1010.81 1010.48 1010.15 1009.82 1009.51 1009.22 1008.93 1008.64 1008.35 1008.05 1007.76 1007.48 1007.23 1007.05 1006.96 1006.97 1007.08 1007.28 1007.56 1007.88 1008.21 1008.51 1008.74 1008.87 1008.90 1008.83 1008.68 1008.47 1008.24 1008.05 1007.91
1009.23 1009.40 1009.65 1009.98 1010.36 1010.74 1011.09 1011.37 1011.57 1011.66 1011.65 1011.53 1011.33 1011.08 1010.78 1010.47 1010.15 1009.83 1009.50 1009.17 1008.82 1008.45 1008.07 1007.68 1007.31 1006.98 1006.70 1006.52 1006.44 1006.48 1006.62 1006.84 1007.14 1007.45 1007.75 1008.00 1008.16 1008.24 1008.21 1008.10 1007.93 1007.73 1007.54 1007.39
1009.48 1009.55 1009.72 1009.99 1010.32 1010.68 1011.02 1011.31 1011.52 1011.64 1011.66 1011.59 1011.43 1011.22 1010.96 1010.67 1010.37 1010.05 1009.72 1009.37 1009.00 1008.60 1008.17 1007.73 1007.29 1006.88 1006.52 1006.25 1006.08 1006.03 1006.08 1006.24 1006.46 1006.74 1007.01 1007.26 1007.45 1007.56 1007.58 1007.52 1007.40 1007.24 1007.08 1006.94
1009.96 1009.91 1009.98 1010.16 1010.41 1010.70 1011.00 1011.25 1011.45 1011.56 1011.59 1011.53 1011.40 1011.21 1010.98 1010.72 1010.44 1010.15 1009.84 1009.51 1009.14 1008.74 1008.31 1007.85 1007.38 1006.92 1006.51 1006.16 1005.90 1005.74 1005.70 1005.76 1005.90 1006.10 1006.33 1006.55 1006.74 1006.87 1006.93 1006.93 1006.87 1006.77 1006.64 1006.53
1010.56 1010.38 1010.33 1010.40 1010.56 1010.77 1011.00 1011.20 1011.35 1011.43 1011.44 1011.37 1011.24 1011.06 1010.84 1010.61 1010.36 1010.10 1009.83 1009.53 1009.20 1008.84 1008.43 1007.98 1007.52 1007.04 1006.59 1006.18 1005.84 1005.59 1005.44 1005.38 1005.42 1005.53 1005.68 1005.85 1006.02 1006.16 1006.25 1006.30 1006.30 1006.26 1006.20 1006.14
1011.14 1010.84 1010.69 1010.66 1010.72 1010.85 1011.00 1011.13 1011.22 1011.26 1011.23 1011.13 1010.98 1010.80 1010.59 1010.36 1010.14 1009.91 1009.67 1009.42 1009.15 1008.83 1008.47 1008.06 1007.62 1007.15 1006.68 1006.23 1005.83 1005.49 1005.24 1005.08 1005.00 1005.00 1005.06 1005.16 1005.28 1005.41 1005.52 1005.60 1005.65 1005.68 1005.69 1005.69
1011.60 1011.23 1010.99 1010.88 1010.86 1010.91 1010.98 1011.05 1011.08 1011.06 1010.99 1010.86 1010.68 1010.47 1010.24 1010.02 1009.80 1009.59 1009.39 1009.18 1008.95 1008.69 1008.38 1008.03 1007.63 1007.18 1006.72 1006.25 1005.80 1005.40 1005.05 1004.78 1004.59 1004.48 1004.44 1004.45 1004.51 1004.60 1004.70 1004.80 1004.89 1004.98 1005.07 1005.15
1011.91 1011.49 1011.20 1011.04 1010.97 1010.96 1010.98 1010.99 1010.97 1010.90 1010.77 1010.60 1010.38 1010.14 1009.89 1009.64 1009.42 1009.21 1009.02 1008.83 1008.64 1008.42 1008.16 1007.86 1007.51 1007.10 1006.66 1006.19 1005.72 1005.26 1004.85 1004.49 1004.19 1003.97 1003.82 1003.73 1003.71 1003.74 1003.80 1003.90 1004.02 1004.16 1004.30 1004.46
1012.07 1011.64 1011.35 1011.17 1011.08 1011.04 1011.02 1010.99 1010.92 1010.81 1010.64 1010.41 1010.15 1009.87 1009.57 1009.30 1009.04 1008.81 1008.61 1008.43 1008.25 1008.06 1007.84 1007.58 1007.27 1006.90 1006.49 1006.04 1005.56 1005.09 1004.62 1004.19 1003.80 1003.48 1003.22 1003.04 1002.92 1002.87 1002.89 1002.95 1003.07 1003.23 1003.43 1003.65
1012.14 1011.75 1011.48 1011.32 1011.22 1011.17 1011.13 1011.08 1010.98 1010.82 1010.61 1010.34 1010.03 1009.70 1009.36 1009.03 1008.73 1008.46 1008.23 1008.02 1007.84 1007.65 1007.45 1007.22 1006.95 1006.63 1006.26 1005.84 1005.38 1004.89 1004.40 1003.92 1003.47 1003.06 1002.71 1002.42 1002.21 1002.07 1002.01 1002.03 1002.12 1002.28 1002.50 1002.78
1012.21 1011.89 1011.67 1011.53 1011.45 1011.40 1011.34 1011.26 1011.14 1010.95 1010.70 1010.39 1010.03 1009.65 1009.25 1008.87 1008.51 1008.19 1007.91 1007.67 1007.46 1007.27 1007.07 1006.86 1006.62 1006.34 1006.01 1005.63 1005.20 1004.73 1004.24 1003.73 1003.24 1002.76 1002.33 1001.95 1001.64 1001.41 1001.27 1001.22 1001.26 1001.39 1001.61 1001.91
1012.37 1012.11 1011.94 1011.83 1011.76 1011.70 1011.63 1011.53 1011.37 1011.15 1010.86 1010.51 1010.11 1009.68 1009.24 1008.81 1008.40 1008.02 1007.69 1007.40 1007.16 1006.94 1006.74 1006.54 1006.33 1006.08 1005.80 1005.46 1005.07 1004.64 1004.16 1003.66 1003.14 1002.63 1002.14 1001.68 1001.29 1000.97 1000.74 1000.61 1000.59 1000.67 1000.86 1001.16
Thickness
5712 5719 5720 5716 5716 5716 5705 5698 5687 5690 5692 5698 5702 5705 5706 5707 5707 5706 5704 5703 5703 5701 5699 5698 5696 5694 5694 5692 5691 5690 5687 5685 5682 5680 5678 5676 5674 5673 5671 5669 5667 5665 5662 5661
5708 5719 5719 5713 5715 5713 5708 5704 5698 5696 5695 5707 5708 5708 5706 5706 5705 5704 5703 5703 5703 5701 5699 5697 5695 5694 5692 5691 5690 5688 5685 5683 5681 5678 5676 5673 5672 5670 5668 5665 5664 5662 5660 5658
5690 5707 5707 5695 5709 5709 5705 5705 5701 5692 5696 5705 5703 5704 5704 5705 5705 5704 5704 5703 5701 5700 5699 5697 5696 5694 5692 5691 5689 5686 5684 5681 5679 5677 5674 5672 5670 5667 5664 5662 5660 5658 5657 5655
5684 5690 5677 5698 5720 5719 5707 5703 5705 5703 5703 5704 5703 5705 5706 5706 5705 5703 5704 5702 5701 5699 5698 5697 5696 5694 5692 5689 5686 5683 5681 5679 5677 5675 5672 5669 5667 5664 5662 5660 5658 5656 5654 5654
5676 5674 5681 5700 5712 5712 5702 5695 5703 5702 5702 5703 5703 5700 5698 5704 5706 5705 5704 5702 5701 5699 5698 5696 5694 5692 5689 5686 5684 5681 5678 5677 5675 5673 5669 5666 5664 5662 5660 5657 5655 5654 5653 5652
5675 5671 5669 5689 5712 5719 5705 5685 5701 5701 5698 5698 5697 5683 5687 5700 5702 5702 5701 5700 5698 5697 5695 5693 5691 5689 5686 5683 5680 5678 5677 5675 5673 5671 5667 5664 5662 5660 5658 5655 5654 5653 5652 5651
5671 5667 5676 5698 5711 5711 5683 5681 5700 5700 5697 5696 5691 5689 5693 5698 5698 5699 5698 5698 5696 5693 5690 5689 5689 5686 5682 5680 5678 5678 5676 5674 5671 5668 5666 5663 5660 5658 5656 5654 5653 5651 5650 5650
5666 5661 5669 5699 5702 5691 5688 5697 5700 5699 5697 5694 5692 5692 5692 5693 5692 5692 5693 5693 5692 5689 5687 5687 5686 5683 5679 5677 5677 5676 5674 5671 5668 5666 5665 5663 5659 5656 5654 5652 5649 5648 5647 5646
5671 5671 5685 5694 5694 5697 5697 5695 5696 5695 5695 5694 5690 5689 5688 5688 5687 5688 5689 5689 5688 5686 5684 5683 5682 5680 5676 5676 5675 5673 5670 5667 5665 5664 5662 5660 5657 5654 5651 5649 5647 5646 5644 5643
5673 5678 5685 5689 5692 5693 5694 5693 5694 5694 5693 5691 5687 5686 5685 5683 5683 5683 5684 5684 5683 5681 5679 5678 5678 5677 5676 5676 5673 5670 5666 5664 5662 5660 5658 5657 5655 5653 5650 5647 5646 5645 5643 5642
5668 5675 5678 5683 5686 5687 5688 5690 5690 5689 5688 5686 5684 5682 5681 5679 5679 5679 5678 5678 5678 5677 5675 5675 5675 5674 5674 5673 5670 5666 5664 5662 5660 5658 5656 5654 5652 5651 5650 5649 5648 5646 5644 5642
5661 5671 5669 5672 5681 5683 5683 5682 5683 5682 5681 5681 5680 5678 5677 5675 5674 5673 5673 5673 5672 5672 5672 5672 5672 5671 5671 5670 5667 5663 5660 5659 5657 5655 5653 5651 5649 5649 5650 5650 5650 5648 5646 5644
5670 5674 5672 5675 5677 5678 5677 5677 5678 5677 5676 5674 5673 5673 5671 5669 5669 5668 5667 5668 5668 5667 5668 5668 5668 5667 5667 5666 5664 5661 5658 5657 5655 5653 5651 5649 5647 5646 5645 5647 5648 5647 5646 5644
5670 5669 5664 5666 5667 5670 5671 5671 5672 5671 5670 5670 5668 5667 5665 5664 5663 5662 5662 5664 5665 5665 5664 5664 5664 5663 5663 5662 5660 5658 5656 5655 5653 5651 5649 5648 5647 5646 5645 5643 5642 5643 5644 5643
5661 5662 5659 5661 5662 5663 5664 5663 5661 5660 5661 5661 5661 5660 5659 5657 5656 5657 5659 5661 5661 5659 5659 5659 5659 5659 5660 5659 5657 5655 5653 5651 5650 5649 5648 5647 5646 5645 5644 5643 5642 5641 5641 5641
5652 5653 5653 5653 5654 5655 5656 5655 5653 5653 5654 5654 5653 5653 5653 5652 5651 5651 5653 5655 5653 5651 5652 5653 5653 5655 5656 5655 5653 5651 5650 5650 5648 5647 5645 5644 5643 5642 5641 5641 5640 5639 5638 5638
5639 5639 5641 5642 5645 5647 5648 5648 5648 5648 5648 5648 5648 5648 5647 5646 5644 5644 5645 5648 5648 5647 5647 5648 5648 5650 5651 5650 5649 5647 5646 5646 5645 5643 5642 5642 5641 5640 5639 5639 5638 5637 5638 5639
5635 5635 5637 5637 5637 5638 5640 5642 5643 5643 5642 5643 5643 5642 5640 5639 5637 5638 5640 5641 5641 5641 5642 5644 5644 5644 5645 5645 5644 5643 5642 5641 5641 5640 5640 5639 5638 5638 5638 5637 5637 5636 5636 5636
5628 5628 5629 5631 5631 5631 5631 5633 5635 5636 5637 5637 5636 5635 5634 5635 5634 5634 5634 5634 5634 5633 5636 5639 5639 5639 5640 5640 5640 5639 5638 5637 5637 5637 5637 5637 5636 5636 5636 5636 5635 5635 5634 5633
5620 5620 5621 5622 5624 5623 5623 5625 5628 5629 5630 5630 5629 5628 5627 5628 5628 5628 5627 5627 5629 5631 5633 5633 5633 5634 5635 5635 5635 5635 5634 5634 5633 5633 5633 5633 5633 5634 5635 5635 5634 5633 5632 5631
5611 5612 5612 5613 5614 5616 5617 5618 5619 5619 5621 5622 5620 5620 5620 5621 5621 5620 5619 5619 5624 5627 5628 5628 5628 5629 5630 5630 5631 5630 5630 5629 5629 5629 5629 5630 5630 5631 5632 5632 5632 5632 5631 5630
5600 5602 5604 5605 5605 5606 5608 5610 5611 5612 5612 5613 5613 5613 5613 5612 5613 5613 5614 5615 5618 5621 5622 5622 5623 5624 5624 5625 5625 5625 5626 5626 5626 5626 5626 5626 5626 5627 5628 5629 5629 5629 5629 5628
5590 5593 5595 5597 5598 5599 5601 5602 5603 5604 5604 5605 5605 5605 5605 5605 5606 5606 5606 5610 5613 5614 5615 5617 5618 5619 5619 5619 5620 5621 5622 5622 5622 5622 5622 5622 5623 5624 5624 5625 5625 5625 5624 5624
5581 5583 5586 5588 5589 5590 5591 5593 5595 5596 5597 5599 5599 5600 5600 5600 5600 5603 5605 5606 5607 5608 5610 5611 5612 5613 5613 5614 5615 5615 5616 5617 5617 5618 5618 5619 5619 5620 5620 5620 5620 5620 5620 5619
5571 5573 5576 5577 5578 5579 5582 5584 5586 5588 5590 5591 5593 5594 5596 5597 5597 5598 5600 5601 5602 5603 5604 5606 5607 5607 5608 5609 5610 5611 5612 5612 5613 5614 5614 5614 5615 5615 5616 5616 5616 5616 5615 5614
5561 5563 5566 5569 5570 5572 5573 5575 5577 5579 5581 5582 5584 5587 5589 5591 5592 5593 5594 5595 5596 5597 5599 5600 5602 5602 5603 5604 5606 5608 5608 5609 5609 5609 5610 5610 5610 5610 5610 5611 5611 5610 5610 5610
5554 5556 5558 5561 5564 5566 5567 5569 5570 5572 5574 5576 5577 5580 5582 5584 5586 5587 5588 5589 5589 5591 5592 5594 5595 5596 5598 5600 5601 5602 5603 5603 5603 5604 5604 5604 5604 5604 5604 5604 5604 5604 5603 5602